TOPSWRTT 000
TTAA00 KICT 232312

Wichita AWIPS Roundup
National Weather Service Wichita KS
600 PM CDT WED APR 23 2014

....Central Kansas....
  
CITY           SKY/WX    TMP DP  RH WIND       PRES   REMARKS
RUSSELL        CLOUDY    81  51  35 S31G43    29.51F HX  80           
SALINA         CLOUDY    83  47  28 S28G38    29.55S HX  81           
GREAT BEND     CLOUDY    82  52  34 S30G44    29.53F HX  81           
ELLSWORTH      SUNNY     82  48  30 S26G40    29.53R HX  81           
MCPHERSON      SUNNY     81  46  30 S20G28    29.59F HX  80           
HAYS           CLOUDY   N/A N/A N/A S38G48    29.49F                  

....South Central Kansas....
  
CITY           SKY/WX    TMP DP  RH WIND       PRES   REMARKS
HUTCHINSON     CLOUDY    82  47  29 S22G32    29.59F HX  80           
NEWTON         CLOUDY    81  43  26 S23G31    29.66F                  
KINGMAN        SUNNY     82  52  34 S21G30    29.59F HX  81           
WICHITA (ICT)  CLOUDY    82  44  26 S23G30    29.63F HX  80           
JABARA ARPT    CLOUDY    82  45  27 S22G36    29.64F HX  80           
MCCONNELL AFB  CLOUDY    82  43  24 S29G36    29.64F HX  80           
HARPER           N/A     82  52  34 SE33G41   29.63F HX  81           
WELLINGTON     SUNNY     84  45  24 SE25G31   29.63F HX  82           
WINFIELD       CLOUDY    83  48  29 S18G28    29.68F HX  81           
 
....Southeast Kansas....
  
CITY           SKY/WX    TMP DP  RH WIND       PRES   REMARKS
EUREKA         SUNNY     81  48  32 SE18      29.68F HX  80           
CHANUTE        SUNNY     80  49  33 S18       29.75F                  
PARSONS        SUNNY     81  50  33 S12G22    29.76F HX  80           
COFFEYVILLE    SUNNY     81  54  39 S21       29.75F HX  81           
INDEPENDENCE   SUNNY     79  54  41 S18       29.74F                  
FORT SCOTT     SUNNY     82  45  26 SE14G20   29.75F HX  80           
PITTSBURG        N/A     81  47  30 S15G24    29.78F HX  80           

....Western Kansas....
  
CITY           SKY/WX    TMP DP  RH WIND       PRES   REMARKS
GOODLAND       MOSUNNY   78  40  25 NE23G30   29.51S                  
HILL CITY      PTSUNNY   79  50  36 S25G37    29.46F                  
LIBERAL        PTSUNNY   79  57  47 SE25G35   29.52F HX  80           
GARDEN CITY    PTSUNNY   83  51  33 S35G43    29.48F HX  81           
DODGE CITY     CLOUDY    78  43  28 S28G38    29.53F                  
PRATT          CLOUDY    81  48  32 S21G32    29.58F HX  80           
MEDICINE LODGE   N/A     83  52  34 S17G30    29.57F HX  82           

....Northeast Kansas....
  
CITY           SKY/WX    TMP DP  RH WIND       PRES   REMARKS
CONCORDIA      CLOUDY    80  49  33 S20G26    29.54F                  
TOPEKA         PTSUNNY   80  46  30 S22G29    29.67F                  
MANHATTAN      CLOUDY    84  42  22 S25G41    29.58F HX  81           
LAWRENCE       MOSUNNY   78  46  32 SE25G33   29.70F                  
OLATHE         MOSUNNY   73  46  38 SE16G26   29.75F                  
EMPORIA        MOSUNNY   79  48  33 SE23G32   29.67F                  

....Oklahoma....
  
CITY           SKY/WX    TMP DP  RH WIND       PRES   REMARKS
GAGE           CLOUDY    82  52  35 S30G41    29.57F HX  81           
PONCA CITY     PTSUNNY   86  46  24 S17G29    29.67F HX  83           
BARTLESVILLE   SUNNY     83  53  35 S18G24    29.73F HX  82           
TULSA          MOSUNNY   83  56  39 S18G28    29.73F HX  82           
OKLAHOMA CITY  PTSUNNY   81  53  37 S21G31    29.70F HX  80           

Note: "fair" indicates few or no clouds below 12,000 feet with no
significant weather and/or obstructions to visibility.
  

USA.gov is the U.S. government's official web portal to all federal, state and local government web resources and services.